Weather History for KBML - August, 2012

Change the Weather History Date:

Sunday, August 12, 2012

  Actual Average Record
Temperature  
Mean Temperature 72 °F -  
Max Temperature 82 °F 76 °F 88 °F (2002)
Min Temperature 64 °F 49 °F 35 °F (2006)
Cooling Degree Days 8    
Growing Degree Days 22 (Base 50)    
Moisture  
Dew Point 65 °F    
Average Humidity 86    
Maximum Humidity 100    
Minimum Humidity 54    
Precipitation  
Precipitation 0.19 in - - ()
Sea Level Pressure  
Sea Level Pressure 29.91 in    
Wind  
Wind Speed 2 mph (SSE)    
Max Wind Speed 13 mph    
Max Gust Speed 22 mph    
Visibility 6 miles    
Events Fog , Rain    
Averages and records for this station are not official NWS values.
T = Trace of Precipitation, MM = Missing Value Source: NWS Daily Summary

Daily Weather History Graph

Daily Weather History Graph

Search for Another Location

Airport or City:

Trip Planner

Search our weather history database for the weather conditions in past years. The results will help you decide how hot, cold, wet, or windy it might be!

Date:

Astronomy

Aug. 12, 2012 Rise Set
Actual Time 5:44 AM EDT 7:54 PM EDT
Civil Twilight 5:12 AM EDT 8:25 PM EDT
Nautical Twilight 4:32 AM EDT 9:05 PM EDT
Astronomical Twilight 3:49 AM EDT 9:48 PM EDT
Moon 12:50 AM EDT (8/12) 4:21 PM EDT (8/12)
Length of Visible Light 15h 13m
Length of Day
14h 09m
Waning Crescent, 24% of the Moon is Illuminated
Aug 12
Waning Crescent
Aug 17
New
Aug 24
First Quarter
Aug 31
Full
Sep 8
Last Quarter

Hourly Weather History & Observations

Time (EDT) Temp. Heat Index Dew Point Humidity Pressure Visibility Wind Dir Wind Speed Gust Speed Precip Events Conditions
12:52 AM 70.0 °F - 66.0 °F 87% 29.93 in 10.0 mi SSE 4.6 mph - N/A   Overcast
1:30 AM 69.8 °F - 66.2 °F 88% 29.93 in 10.0 mi SSE 3.5 mph - N/A   Scattered Clouds
1:52 AM 69.1 °F - 66.0 °F 90% 29.92 in 10.0 mi Calm Calm - N/A   Clear
2:52 AM 68.0 °F - 66.0 °F 93% 29.91 in 10.0 mi Calm Calm - N/A   Partly Cloudy
3:52 AM 66.0 °F - 64.0 °F 93% 29.92 in 10.0 mi Calm Calm - N/A   Partly Cloudy
4:52 AM 64.9 °F - 63.0 °F 93% 29.92 in 10.0 mi Calm Calm - N/A   Partly Cloudy
5:52 AM 64.9 °F - 64.0 °F 97% 29.93 in 10.0 mi Calm Calm - N/A   Scattered Clouds
6:52 AM 66.0 °F - 64.0 °F 93% 29.94 in 10.0 mi Calm Calm - N/A   Mostly Cloudy
7:52 AM 66.9 °F - 64.9 °F 93% 29.95 in 10.0 mi Calm Calm - N/A   Clear
8:52 AM 69.1 °F - 64.9 °F 87% 29.95 in 10.0 mi Calm Calm - N/A   Scattered Clouds
9:52 AM 70.0 °F - 66.0 °F 87% 29.95 in 10.0 mi Calm Calm - N/A   Overcast
10:52 AM 72.0 °F - 66.9 °F 84% 29.93 in 10.0 mi Calm Calm - 0.00 in   Overcast
11:52 AM 77.0 °F - 64.9 °F 66% 29.91 in 10.0 mi Calm Calm - N/A   Partly Cloudy
12:52 PM 81.0 °F 82.2 °F 63.0 °F 54% 29.88 in 10.0 mi Variable 4.6 mph - N/A   Mostly Cloudy
1:52 PM 79.0 °F - 64.0 °F 60% 29.88 in 10.0 mi South 9.2 mph - N/A   Overcast
2:52 PM 80.1 °F 81.9 °F 64.9 °F 60% 29.87 in 10.0 mi Variable 4.6 mph - N/A   Overcast
3:52 PM 81.0 °F 82.7 °F 64.9 °F 58% 29.86 in 10.0 mi SSE 10.4 mph - N/A   Mostly Cloudy
4:52 PM 81.0 °F 82.2 °F 63.0 °F 54% 29.85 in 10.0 mi South 5.8 mph - N/A   Clear
5:52 PM 75.0 °F - 64.9 °F 71% 29.87 in 7.0 mi Variable 5.8 mph - 0.00 in Rain Light Rain
5:57 PM 71.6 °F - 66.2 °F 83% 29.89 in 1.5 mi SW 12.7 mph 21.9 mph 0.12 in Rain Rain
5:59 PM 71.6 °F - 66.2 °F 83% 29.89 in 0.8 mi SW 5.8 mph 21.9 mph 0.17 in Rain Heavy Rain
6:09 PM 69.8 °F - 66.2 °F 88% 29.88 in 2.0 mi ESE 4.6 mph - 0.19 in Rain Light Rain
6:13 PM 69.8 °F - 66.2 °F 88% 29.89 in 6.0 mi Calm Calm - 0.19 in Rain Light Rain
6:52 PM 70.0 °F - 68.0 °F 93% 29.88 in 8.0 mi ENE 4.6 mph - 0.19 in   Mostly Cloudy
7:52 PM 70.0 °F - 66.9 °F 90% 29.88 in 9.0 mi Calm Calm - N/A   Overcast
8:52 PM 66.9 °F - 64.9 °F 93% 29.91 in 5.0 mi Calm Calm - N/A   Scattered Clouds
9:13 PM 66.2 °F - 64.4 °F 94% 29.92 in 1.8 mi Calm Calm - N/A   Partly Cloudy
9:19 PM 66.2 °F - 64.4 °F 94% 29.92 in 0.8 mi Calm Calm - N/A   Mostly Cloudy
9:26 PM 64.4 °F - 62.6 °F 94% 29.93 in 1.5 mi Calm Calm - N/A   Mostly Cloudy
9:29 PM 64.4 °F - 62.6 °F 94% 29.93 in 4.0 mi Calm Calm - N/A   Mostly Cloudy
9:48 PM 66.2 °F - 64.4 °F 94% 29.93 in 6.0 mi Calm Calm - N/A   Overcast
9:52 PM 66.9 °F - 64.9 °F 93% 29.92 in 5.0 mi Calm Calm - N/A   Overcast
10:12 PM 64.4 °F - 62.6 °F 94% 29.93 in 1.8 mi Calm Calm - N/A   Overcast
10:20 PM 64.4 °F - 64.4 °F 100% 29.93 in 1.0 mi Calm Calm - N/A   Mist
10:28 PM 64.4 °F - 62.6 °F 94% 29.93 in 0.5 mi Calm Calm - N/A Fog Fog
10:40 PM 64.4 °F - 64.4 °F 100% 29.93 in 0.2 mi Calm Calm - N/A Fog Fog
10:52 PM 66.0 °F - 64.9 °F 96% 29.92 in 0.2 mi Calm Calm - N/A Fog Fog
11:39 PM 64.4 °F - 62.6 °F 94% 29.93 in 0.2 mi Calm Calm - N/A Fog Fog
11:52 PM 64.0 °F - 63.0 °F 96% 29.91 in 0.2 mi Calm Calm - N/A Fog Fog